Location: Ferchesar
(52.6477°N, 12.4298°E)
Time: 09:25:13
(UTC+01:00)

Vanguard 1 - Pass Details

Date: 14 December 2021
Orbit: 652 x 3830 km, 34.2° (Epoch: 24 January)

Event Time Altitude Azimuth Distance (km) Brightness Sun altitude
Rises 19:57:31 0° 200° (SSW) 5,609 14.1 -35.2°
Reaches altitude 10° 20:01:41 10° 187° (S) 5,061 13.6 -35.8°
Enters shadow 20:09:11 24° 158° (SSE) 4,710 13.2 -36.9°
Maximum altitude 20:13:27 26° 139° (SE) 4,883 - -37.6°
Drops below altitude 10° 20:29:06 10° 94° (E) 6,859 - -39.9°
Sets 20:36:06 0° 85° (E) 7,977 - -40.9°
